Find Starlink 1362

NORAD ID: 45538 Int'l Des: 2020-025 Owner: SPXS Country: US Constellation: starlink operational
LEOCIRCULAR

实时位置

正在加载3D地球...

关于 Starlink 1362

正在加载描述...

即将过境

Passes for default location (London). Set your location on the main map for personalized predictions.

高度历史

Loading altitude history...

两行轨道根数

1 45538U 20025H 26110.43020179 -.00179573 00000-0 -57424-2 0 9998
2 45538 53.1630 266.8256 0001733 89.8422 270.2779 15.32639664331575
Epoch: Apr 20, 2026 • Age: 9 hours

当前状态

高度 482.2 km
速度 7.62 km/s
星下点 -39.41°S, 86.08°E
发射日期 Apr 22, 2020
运行时间 5.9 years
类型 internet

技术详情

分类 Payload
质量 260.00 kg
干质量 248.00 kg
总质量 260.00 kg
长度 0.20 m
直径 2.80 m
跨度 9.00 m
形状 Box + pan
制造商 SPXS
平台类型 Starlink
阶段状态 In Orbit
所有者/国家 SPXS/US

Most Searched